Location: Hochstatterhof
(48.7256°N, 10.3487°E)
Time: 01:16:22
(UTC+00:00)

Cosmos 1812 Rocket - Pass Details

Date: 26 September 2023
Orbit: 603 x 629 km, 82.5° (Epoch: 04 December)

Event Time Altitude Azimuth Distance (km) Brightness Sun altitude
Exits shadow 02:48:04 39° 323° (NW) 948 4.3 -23.4°
Drops below altitude 10° 02:51:23 10° 359° (N) 2,021 6.5 -23.0°
Sets 02:53:42 0° 5° (N) 2,932 7.5 -22.6°
